Location: Boiro
(42.6475°N, 8.8834°W)
Time: 03:23:19
(UTC+01:00)

Vanguard 1 Rocket - Pass Details

Date: 07 December 2021
Orbit: 651 x 4224 km, 34.3° (Epoch: 21 January)

Event Time Altitude Azimuth Distance (km) Brightness Sun altitude
Rises 01:09:53 0° 193° (SSW) 3,592 - -69.6°
Reaches altitude 10° 01:13:03 10° 172° (S) 3,009 - -69.8°
Maximum altitude 01:17:46 18° 132° (SE) 3,040 - -69.9°
Drops below altitude 10° 01:24:22 10° 96° (E) 4,458 - -70.0°
Exits shadow 01:28:54 - 84° (E) 5,718 11.5 -70.0°
Sets 01:30:46 0° 81° (E) 6,243 11.7 -69.9°
